Weather History for Grants-Milan, NM

Change the Weather History Date:

Sunday, January 19, 2014

  Actual Average Record
Temperature  
Mean Temperature 34 °F -  
Max Temperature 58 °F 46 °F 67 °F (1986)
Min Temperature 9 °F 14 °F -17 °F (1987)
Degree Days  
Heating Degree Days 32    
Moisture  
Dew Point 6 °F    
Average Humidity 43    
Maximum Humidity 75    
Minimum Humidity 12    
Precipitation  
Precipitation 0.00 in - - ()
Sea Level Pressure  
Sea Level Pressure 30.31 in    
Wind  
Wind Speed 7 mph (NW)    
Max Wind Speed 17 mph    
Max Gust Speed 22 mph    
Visibility 10 miles    
Events      
Averages and records for this station are not official NWS values.
T = Trace of Precipitation, MM = Missing Value Source: NWS Daily Summary

Daily Weather History Graph

Daily Weather History Graph

Search for Another Location

Airport:

Trip Planner

Search our weather history database for the weather conditions in past years. The results will help you decide how hot, cold, wet, or windy it might be!

Date:

Astronomy

Jan. 19, 2014 Rise Set
Actual Time 7:18 AM MST 5:26 PM MST
Civil Twilight 6:50 AM MST 5:54 PM MST
Nautical Twilight 6:19 AM MST 6:25 PM MST
Astronomical Twilight 5:49 AM MST 6:55 PM MST
Moon 8:57 PM MST (1/19) 8:58 AM MST (1/19)
Length of Visible Light 11h 03m
Length of Day
10h 08m
Waning Gibbous, 89% of the Moon is Illuminated
Jan 19
Waning Gibbous
Jan 23
Last Quarter
Jan 30
New
Feb 6
First Quarter
Feb 14
Full

Hourly Weather History & Observations

Time (MST) Temp. Windchill Dew Point Humidity Pressure Visibility Wind Dir Wind Speed Gust Speed Precip Events Conditions
12:15 AM 15.3 °F 9.6 °F 2.7 °F 58% 30.36 in 10.0 mi NW 3.5 mph - N/A   Clear
12:35 AM 17.6 °F 7.3 °F 5.7 °F 60% 30.36 in 10.0 mi NW 8.1 mph - N/A   Clear
12:55 AM 16.9 °F 5.5 °F 3.9 °F 57% 30.36 in 10.0 mi NW 9.2 mph - N/A   Clear
1:15 AM 18.0 °F 6.9 °F 4.6 °F 56% 30.36 in 10.0 mi WNW 9.2 mph - N/A   Clear
1:35 AM 18.0 °F 6.9 °F 4.8 °F 57% 30.36 in 10.0 mi NW 9.2 mph - N/A   Clear
1:55 AM 17.1 °F 8.7 °F 4.8 °F 59% 30.37 in 10.0 mi NW 5.8 mph - N/A   Clear
2:15 AM 14.7 °F 7.3 °F 3.6 °F 61% 30.37 in 10.0 mi NNW 4.6 mph - N/A   Clear
2:35 AM 12.2 °F 0.7 °F 1.9 °F 64% 30.37 in 10.0 mi NNW 8.1 mph - N/A   Clear
2:55 AM 12.6 °F 0.2 °F 2.1 °F 63% 30.37 in 10.0 mi NW 9.2 mph - N/A   Clear
3:15 AM 12.6 °F 0.2 °F 2.1 °F 63% 30.38 in 10.0 mi NW 9.2 mph - N/A   Clear
3:35 AM 10.4 °F 0.8 °F 1.2 °F 66% 30.37 in 10.0 mi NW 5.8 mph - N/A   Clear
3:55 AM 9.7 °F -2.4 °F 2.1 °F 71% 30.37 in 10.0 mi NW 8.1 mph - N/A   Clear
4:15 AM 11.3 °F -0.4 °F 2.5 °F 68% 30.37 in 10.0 mi NNW 8.1 mph - N/A   Clear
4:35 AM 10.2 °F -1.7 °F 2.5 °F 71% 30.37 in 10.0 mi NNW 8.1 mph - N/A   Clear
4:55 AM 10.4 °F -1.5 °F 2.3 °F 70% 30.37 in 10.0 mi NNW 8.1 mph - N/A   Clear
5:15 AM 11.3 °F 0.7 °F 3.0 °F 69% 30.37 in 10.0 mi NW 6.9 mph - N/A   Clear
5:35 AM 12.2 °F 0.7 °F 3.2 °F 67% 30.37 in 10.0 mi NW 8.1 mph - N/A   Clear
5:55 AM 9.9 °F -2.2 °F 2.5 °F 72% 30.37 in 10.0 mi NW 8.1 mph - N/A   Clear
6:15 AM 9.5 °F -2.6 °F 2.8 °F 74% 30.37 in 10.0 mi NW 8.1 mph - N/A   Clear
6:35 AM 9.3 °F -1.7 °F 2.8 °F 75% 30.38 in 10.0 mi NW 6.9 mph - N/A   Clear
6:55 AM 10.0 °F -2.9 °F 3.0 °F 73% 30.38 in 10.0 mi WNW 9.2 mph - N/A   Clear
7:15 AM 10.6 °F -2.2 °F 3.4 °F 73% 30.38 in 10.0 mi NW 9.2 mph - N/A   Clear
7:35 AM 11.8 °F 0.3 °F 4.8 °F 73% 30.38 in 10.0 mi NW 8.1 mph - N/A   Clear
7:55 AM 14.0 °F 5.1 °F 5.7 °F 70% 30.38 in 10.0 mi NNW 5.8 mph - N/A   Clear
8:15 AM 14.7 °F 4.8 °F 5.2 °F 66% 30.38 in 10.0 mi NNW 6.9 mph - N/A   Clear
8:35 AM 17.8 °F 8.5 °F 6.4 °F 61% 30.38 in 10.0 mi NW 6.9 mph - N/A   Clear
8:55 AM 21.9 °F 14.5 °F 8.1 °F 55% 30.39 in 10.0 mi NW 5.8 mph - N/A   Clear
9:15 AM 24.8 °F 17.9 °F 9.3 °F 52% 30.39 in 10.0 mi NW 5.8 mph - N/A   Clear
9:35 AM 27.1 °F 19.7 °F 9.9 °F 48% 30.39 in 10.0 mi NNW 6.9 mph - N/A   Clear
9:55 AM 29.8 °F 23.9 °F 10.4 °F 44% 30.40 in 10.0 mi NW 5.8 mph - N/A   Clear
10:15 AM 32.0 °F 26.4 °F 10.8 °F 41% 30.39 in 10.0 mi NNW 5.8 mph - N/A   Clear
10:35 AM 35.2 °F 30.3 °F 10.9 °F 37% 30.38 in 10.0 mi NNW 5.8 mph - N/A   Clear
10:55 AM 38.5 °F 35.0 °F 11.5 °F 33% 30.37 in 10.0 mi North 4.6 mph - N/A   Clear
11:15 AM 41.0 °F 37.1 °F 12.0 °F 31% 30.36 in 10.0 mi NNW 5.8 mph - N/A   Clear
11:35 AM 43.3 °F 39.9 °F 12.2 °F 28% 30.34 in 10.0 mi WNW 5.8 mph - N/A   Clear
11:55 AM 45.9 °F 42.9 °F 12.2 °F 26% 30.32 in 10.0 mi North 5.8 mph - N/A   Clear
12:15 PM 47.8 °F - 12.2 °F 24% 30.30 in 10.0 mi NNW 5.8 mph - N/A   Clear
12:35 PM 48.9 °F - 11.7 °F 22% 30.29 in 10.0 mi NNW 4.6 mph - N/A   Clear
12:55 PM 52.0 °F - 10.9 °F 19% 30.28 in 10.0 mi NNE 4.6 mph - N/A   Clear
1:15 PM 53.2 °F - 10.8 °F 18% 30.26 in 10.0 mi NNW 6.9 mph - N/A   Clear
1:35 PM 54.3 °F - 10.2 °F 17% 30.24 in 10.0 mi NW 6.9 mph - N/A   Clear
1:55 PM 56.1 °F - 9.0 °F 15% 30.24 in 10.0 mi West 5.8 mph - N/A   Clear
2:15 PM 57.6 °F - 7.5 °F 14% 30.23 in 10.0 mi North 8.1 mph - N/A   Clear
2:35 PM 57.2 °F - 7.3 °F 14% 30.23 in 10.0 mi NNW 9.2 mph - N/A   Clear
2:55 PM 58.1 °F - 5.9 °F 12% 30.22 in 10.0 mi NNW 13.8 mph 17.3 mph N/A   Clear
3:15 PM 57.7 °F - 4.8 °F 12% 30.23 in 10.0 mi NNW 16.1 mph - N/A   Clear
3:35 PM 57.6 °F - 4.6 °F 12% 30.23 in 10.0 mi NNW 16.1 mph 21.9 mph N/A   Clear
3:55 PM 56.8 °F - 5.0 °F 12% 30.23 in 10.0 mi NNW 17.3 mph - N/A   Clear
4:15 PM 55.8 °F - 4.6 °F 13% 30.23 in 10.0 mi NNW 12.7 mph - N/A   Clear
4:35 PM 54.5 °F - 5.0 °F 14% 30.22 in 10.0 mi NNW 13.8 mph - N/A   Clear
4:55 PM 52.3 °F - 4.8 °F 15% 30.22 in 10.0 mi North 9.2 mph - N/A   Clear
5:15 PM 45.9 °F 42.3 °F 4.6 °F 18% 30.22 in 10.0 mi NW 6.9 mph - N/A   Clear
5:55 PM 41.9 °F 35.0 °F 5.9 °F 23% 30.23 in 10.0 mi WNW 12.7 mph - N/A   Clear
6:15 PM 40.1 °F 36.1 °F 5.0 °F 23% 30.24 in 10.0 mi West 5.8 mph - N/A   Clear
6:35 PM 38.5 °F 33.4 °F 4.6 °F 24% 30.25 in 10.0 mi North 6.9 mph 16.1 mph N/A   Clear
6:55 PM 35.1 °F 31.0 °F 3.7 °F 27% 30.26 in 10.0 mi NW 4.6 mph - N/A   Clear
7:15 PM 33.3 °F 30.2 °F 3.4 °F 28% 30.26 in 10.0 mi NW 3.5 mph - N/A   Clear
7:35 PM 28.6 °F 23.5 °F 2.1 °F 32% 30.26 in 10.0 mi NNW 4.6 mph - N/A   Clear
7:55 PM 30.9 °F 25.2 °F 4.3 °F 32% 30.27 in 10.0 mi WNW 5.8 mph - N/A   Clear
8:15 PM 31.5 °F 25.8 °F 5.4 °F 33% 30.27 in 10.0 mi West 5.8 mph - N/A   Clear
8:35 PM 28.0 °F - 4.3 °F 36% 30.27 in 10.0 mi Calm Calm - N/A   Clear
8:55 PM 23.5 °F 16.4 °F 3.9 °F 43% 30.27 in 10.0 mi NNW 5.8 mph - N/A   Clear
9:15 PM 21.7 °F 12.3 °F 3.6 °F 46% 30.26 in 10.0 mi NW 8.1 mph - N/A   Clear
9:35 PM 23.0 °F 13.9 °F 4.1 °F 44% 30.26 in 10.0 mi NW 8.1 mph - N/A   Clear
9:55 PM 23.4 °F 14.3 °F 3.9 °F 43% 30.26 in 10.0 mi NNW 8.1 mph - N/A   Clear
10:15 PM 22.6 °F 16.5 °F 3.7 °F 44% 30.27 in 10.0 mi NW 4.6 mph - N/A   Clear
10:35 PM 23.0 °F 11.7 °F 4.8 °F 46% 30.27 in 10.0 mi WNW 11.5 mph - N/A   Clear
10:55 PM 23.9 °F 12.9 °F 4.8 °F 44% 30.27 in 10.0 mi NW 11.5 mph - N/A   Clear
11:15 PM 23.9 °F 15.0 °F 4.8 °F 44% 30.27 in 10.0 mi NW 8.1 mph - N/A   Clear
11:35 PM 23.0 °F 12.4 °F 5.0 °F 46% 30.27 in 10.0 mi WNW 10.4 mph - N/A   Clear
11:55 PM 21.9 °F 12.5 °F 5.0 °F 48% 30.27 in 10.0 mi NW 8.1 mph - N/A   Clear